Year,Month,Day,Hour,Minute,Value (Times are PST for temperature in C)
2009,09,25,00,00,9.20
2009,09,25,00,01,9.20
2009,09,25,00,02,9.20
2009,09,25,00,03,9.10
2009,09,25,00,04,9.10
2009,09,25,00,05,9.10
2009,09,25,00,06,9.10
2009,09,25,00,07,9.10
2009,09,25,00,08,9.10
2009,09,25,00,09,9.10
2009,09,25,00,10,9.10
2009,09,25,00,11,9.10
2009,09,25,00,12,9.10
2009,09,25,00,13,9.00
2009,09,25,00,14,9.00
2009,09,25,00,15,9.00
2009,09,25,00,16,9.00
2009,09,25,00,17,9.00
2009,09,25,00,18,8.90
2009,09,25,00,19,8.90
2009,09,25,00,20,8.90
2009,09,25,00,21,8.90
2009,09,25,00,22,8.90
2009,09,25,00,23,8.90
2009,09,25,00,24,8.90
2009,09,25,00,25,8.90
2009,09,25,00,26,8.90
2009,09,25,00,27,8.90
2009,09,25,00,28,8.90
2009,09,25,00,29,8.90
2009,09,25,00,30,8.90
2009,09,25,00,31,8.90
2009,09,25,00,32,8.80
2009,09,25,00,33,8.80
2009,09,25,00,34,8.80
2009,09,25,00,35,8.80
2009,09,25,00,36,8.80
2009,09,25,00,37,8.80
2009,09,25,00,38,8.80
2009,09,25,00,39,8.80
2009,09,25,00,40,8.80
2009,09,25,00,41,8.80
2009,09,25,00,42,8.80
2009,09,25,00,43,8.80
2009,09,25,00,44,8.80
2009,09,25,00,45,8.80
2009,09,25,00,46,8.80
2009,09,25,00,47,8.80
2009,09,25,00,48,8.80
2009,09,25,00,49,8.80
2009,09,25,00,50,8.80
2009,09,25,00,51,8.80
2009,09,25,00,52,8.80
2009,09,25,00,53,8.80
2009,09,25,00,54,8.80
2009,09,25,00,55,8.80
2009,09,25,00,56,8.80
2009,09,25,00,57,8.80
2009,09,25,00,58,8.80
2009,09,25,00,59,8.90
2009,09,25,01,00,8.90
2009,09,25,01,01,8.90
2009,09,25,01,02,8.90
2009,09,25,01,03,8.90
2009,09,25,01,04,8.90
2009,09,25,01,05,8.80
2009,09,25,01,06,8.80
2009,09,25,01,07,8.80
2009,09,25,01,08,8.80
2009,09,25,01,09,8.80
2009,09,25,01,10,8.80
2009,09,25,01,11,8.80
2009,09,25,01,12,8.80
2009,09,25,01,13,8.80
2009,09,25,01,14,8.80
2009,09,25,01,15,8.80
2009,09,25,01,16,8.80
2009,09,25,01,17,8.80
2009,09,25,01,18,8.80
2009,09,25,01,19,8.80
2009,09,25,01,20,8.80
2009,09,25,01,21,8.80
2009,09,25,01,22,8.80
2009,09,25,01,23,8.80
2009,09,25,01,24,8.80
2009,09,25,01,25,8.80
2009,09,25,01,26,8.80
2009,09,25,01,27,8.80
2009,09,25,01,28,8.80
2009,09,25,01,29,8.80
2009,09,25,01,30,8.70
2009,09,25,01,31,8.70
2009,09,25,01,32,8.70
2009,09,25,01,33,8.70
2009,09,25,01,34,8.70
2009,09,25,01,35,8.70
2009,09,25,01,36,8.70
2009,09,25,01,37,8.70
2009,09,25,01,38,8.70
2009,09,25,01,39,8.70
2009,09,25,01,40,8.70
2009,09,25,01,41,8.70
2009,09,25,01,42,8.70
2009,09,25,01,43,8.70
2009,09,25,01,44,8.70
2009,09,25,01,45,8.70
2009,09,25,01,46,8.70
2009,09,25,01,47,8.70
2009,09,25,01,48,8.70
2009,09,25,01,49,8.70
2009,09,25,01,50,8.70
2009,09,25,01,51,8.60
2009,09,25,01,52,8.60
2009,09,25,01,53,8.60
2009,09,25,01,54,8.60
2009,09,25,01,55,8.60
2009,09,25,01,56,8.60
2009,09,25,01,57,8.60
2009,09,25,01,58,8.60
2009,09,25,01,59,8.60
2009,09,25,02,00,8.60
2009,09,25,02,01,8.60
2009,09,25,02,02,8.60
2009,09,25,02,03,8.60
2009,09,25,02,04,8.60
2009,09,25,02,05,8.60
2009,09,25,02,06,8.60
2009,09,25,02,07,8.60
2009,09,25,02,08,8.60
2009,09,25,02,09,8.60
2009,09,25,02,10,8.60
2009,09,25,02,11,8.60
2009,09,25,02,12,8.60
2009,09,25,02,13,8.60
2009,09,25,02,14,8.60
2009,09,25,02,15,8.60
2009,09,25,02,16,8.60
2009,09,25,02,17,8.60
2009,09,25,02,18,8.60
2009,09,25,02,19,8.60
2009,09,25,02,20,8.60
2009,09,25,02,21,8.60
2009,09,25,02,22,8.60
2009,09,25,02,23,8.60
2009,09,25,02,24,8.50
2009,09,25,02,25,8.50
2009,09,25,02,26,8.50
2009,09,25,02,27,8.50
2009,09,25,02,28,8.50
2009,09,25,02,29,8.40
2009,09,25,02,30,8.40
2009,09,25,02,31,8.40
2009,09,25,02,32,8.40
2009,09,25,02,33,8.40
2009,09,25,02,34,8.40
2009,09,25,02,35,8.40
2009,09,25,02,36,8.50
2009,09,25,02,37,8.50
2009,09,25,02,38,8.50
2009,09,25,02,39,8.50
2009,09,25,02,40,8.50
2009,09,25,02,41,8.60
2009,09,25,02,42,8.60
2009,09,25,02,43,8.60
2009,09,25,02,44,8.60
2009,09,25,02,45,8.60
2009,09,25,02,46,8.60
2009,09,25,02,47,8.50
2009,09,25,02,48,8.50
2009,09,25,02,49,8.50
2009,09,25,02,50,8.50
2009,09,25,02,51,8.50
2009,09,25,02,52,8.50
2009,09,25,02,53,8.50
2009,09,25,02,54,8.50
2009,09,25,02,55,8.50
2009,09,25,02,56,8.50
2009,09,25,02,57,8.50
2009,09,25,02,58,8.60
2009,09,25,02,59,8.50
2009,09,25,03,00,8.50
2009,09,25,03,01,8.50
2009,09,25,03,02,8.50
2009,09,25,03,03,8.50
2009,09,25,03,04,8.50
2009,09,25,03,05,8.40
2009,09,25,03,06,8.40
2009,09,25,03,07,8.40
2009,09,25,03,08,8.40
2009,09,25,03,09,8.40
2009,09,25,03,10,8.40
2009,09,25,03,11,8.40
2009,09,25,03,12,8.40
2009,09,25,03,13,8.40
2009,09,25,03,14,8.40
2009,09,25,03,15,8.40
2009,09,25,03,16,8.40
2009,09,25,03,17,8.30
2009,09,25,03,18,8.40
2009,09,25,03,19,8.40
2009,09,25,03,20,8.30
2009,09,25,03,21,8.30
2009,09,25,03,22,8.30
2009,09,25,03,23,8.30
2009,09,25,03,24,8.30
2009,09,25,03,25,8.30
2009,09,25,03,26,8.30
2009,09,25,03,27,8.30
2009,09,25,03,28,8.30
2009,09,25,03,29,8.30
2009,09,25,03,30,8.30
2009,09,25,03,31,8.30
2009,09,25,03,32,8.30
2009,09,25,03,33,8.30
2009,09,25,03,34,8.30
2009,09,25,03,35,8.20
2009,09,25,03,36,8.20
2009,09,25,03,37,8.20
2009,09,25,03,38,8.20
2009,09,25,03,39,8.20
2009,09,25,03,40,8.20
2009,09,25,03,41,8.20
2009,09,25,03,42,8.20
2009,09,25,03,43,8.20
2009,09,25,03,44,8.10
2009,09,25,03,45,8.10
2009,09,25,03,46,8.10
2009,09,25,03,47,8.10
2009,09,25,03,48,8.10
2009,09,25,03,49,8.10
2009,09,25,03,50,8.10
2009,09,25,03,51,8.10
2009,09,25,03,52,8.10
2009,09,25,03,53,8.10
2009,09,25,03,54,8.10
2009,09,25,03,55,8.10
2009,09,25,03,56,8.10
2009,09,25,03,57,8.10
2009,09,25,03,58,8.10
2009,09,25,03,59,8.10
2009,09,25,04,00,8.10
2009,09,25,04,01,8.10
2009,09,25,04,02,8.10
2009,09,25,04,03,8.10
2009,09,25,04,04,8.10
2009,09,25,04,05,8.10
2009,09,25,04,06,8.10
2009,09,25,04,07,8.10
2009,09,25,04,08,8.10
2009,09,25,04,09,8.10
2009,09,25,04,10,8.10
2009,09,25,04,11,8.10
2009,09,25,04,12,8.10
2009,09,25,04,13,8.10
2009,09,25,04,14,8.10
2009,09,25,04,15,8.00
2009,09,25,04,16,8.00
2009,09,25,04,17,8.00
2009,09,25,04,18,8.00
2009,09,25,04,19,8.00
2009,09,25,04,20,8.00
2009,09,25,04,21,8.00
2009,09,25,04,22,8.00
2009,09,25,04,23,8.00
2009,09,25,04,24,8.00
2009,09,25,04,25,8.00
2009,09,25,04,26,7.90
2009,09,25,04,27,7.90
2009,09,25,04,28,7.90
2009,09,25,04,29,8.00
2009,09,25,04,30,8.00
2009,09,25,04,31,7.90
2009,09,25,04,32,8.00
2009,09,25,04,33,7.90
2009,09,25,04,34,8.00
2009,09,25,04,35,7.90
2009,09,25,04,36,7.90
2009,09,25,04,37,7.90
2009,09,25,04,38,7.90
2009,09,25,04,39,7.90
2009,09,25,04,40,7.90
2009,09,25,04,41,7.90
2009,09,25,04,42,7.90
2009,09,25,04,43,7.90
2009,09,25,04,44,7.90
2009,09,25,04,45,7.90
2009,09,25,04,46,7.90
2009,09,25,04,47,7.90
2009,09,25,04,48,7.80
2009,09,25,04,49,7.80
2009,09,25,04,50,7.80
2009,09,25,04,51,7.80
2009,09,25,04,52,7.80
2009,09,25,04,53,7.80
2009,09,25,04,54,7.80
2009,09,25,04,55,7.80
2009,09,25,04,56,7.80
2009,09,25,04,57,7.80
2009,09,25,04,58,7.80
2009,09,25,04,59,7.80
2009,09,25,05,00,7.80
2009,09,25,05,01,7.80
2009,09,25,05,02,7.80
2009,09,25,05,03,7.80
2009,09,25,05,04,7.80
2009,09,25,05,05,7.80
2009,09,25,05,06,7.90
2009,09,25,05,07,7.90
2009,09,25,05,08,8.00
2009,09,25,05,09,8.10
2009,09,25,05,10,8.20
2009,09,25,05,11,8.20
2009,09,25,05,12,8.30
2009,09,25,05,13,8.50
2009,09,25,05,14,8.70
2009,09,25,05,15,8.90
2009,09,25,05,16,9.10
2009,09,25,05,17,9.20
2009,09,25,05,18,9.20
2009,09,25,05,19,9.20
2009,09,25,05,20,9.20
2009,09,25,05,21,9.20
2009,09,25,05,22,9.20
2009,09,25,05,23,9.10
2009,09,25,05,24,9.00
2009,09,25,05,25,9.00
2009,09,25,05,26,8.90
2009,09,25,05,27,8.90
2009,09,25,05,28,8.80
2009,09,25,05,29,8.80
2009,09,25,05,30,8.70
2009,09,25,05,31,8.70
2009,09,25,05,32,8.60
2009,09,25,05,33,8.60
2009,09,25,05,34,8.60
2009,09,25,05,35,8.50
2009,09,25,05,36,8.40
2009,09,25,05,37,8.40
2009,09,25,05,38,8.40
2009,09,25,05,39,8.40
2009,09,25,05,40,8.40
2009,09,25,05,41,8.30
2009,09,25,05,42,8.30
2009,09,25,05,43,8.30
2009,09,25,05,44,8.20
2009,09,25,05,45,8.20
2009,09,25,05,46,8.20
2009,09,25,05,47,8.20
2009,09,25,05,48,8.20
2009,09,25,05,49,8.20
2009,09,25,05,50,8.20
2009,09,25,05,51,8.20
2009,09,25,05,52,8.20
2009,09,25,05,53,8.20
2009,09,25,05,54,8.20
2009,09,25,05,55,8.20
2009,09,25,05,56,8.20
2009,09,25,05,57,8.20
2009,09,25,05,58,8.20
2009,09,25,05,59,8.20
2009,09,25,06,00,8.20
2009,09,25,06,01,8.10
2009,09,25,06,02,8.10
2009,09,25,06,03,8.20
2009,09,25,06,04,8.20
2009,09,25,06,05,8.20
2009,09,25,06,06,8.20
2009,09,25,06,07,8.20
2009,09,25,06,08,8.20
2009,09,25,06,09,8.30
2009,09,25,06,10,8.30
2009,09,25,06,11,8.30
2009,09,25,06,12,8.30
2009,09,25,06,13,8.30
2009,09,25,06,14,8.30
2009,09,25,06,15,8.30
2009,09,25,06,16,8.30
2009,09,25,06,17,8.30
2009,09,25,06,18,8.30
2009,09,25,06,19,8.30
2009,09,25,06,20,8.30
2009,09,25,06,21,8.30
2009,09,25,06,22,8.30
2009,09,25,06,23,8.40
2009,09,25,06,24,8.40
2009,09,25,06,25,8.40
2009,09,25,06,26,8.40
2009,09,25,06,27,8.40
2009,09,25,06,28,8.40
2009,09,25,06,29,8.40
2009,09,25,06,30,8.30
2009,09,25,06,31,8.40
2009,09,25,06,32,8.40
2009,09,25,06,33,8.40
2009,09,25,06,34,8.30
2009,09,25,06,35,8.30
2009,09,25,06,36,8.30
2009,09,25,06,37,8.30
2009,09,25,06,38,8.30
2009,09,25,06,39,8.30
2009,09,25,06,40,8.30
2009,09,25,06,41,8.30
2009,09,25,06,42,8.20
2009,09,25,06,43,8.20
2009,09,25,06,44,8.20
2009,09,25,06,45,8.20
2009,09,25,06,46,8.20
2009,09,25,06,47,8.20
2009,09,25,06,48,8.20
2009,09,25,06,49,8.20
2009,09,25,06,50,8.20
2009,09,25,06,51,8.20
2009,09,25,06,52,8.20
2009,09,25,06,53,8.20
2009,09,25,06,54,8.20
2009,09,25,06,55,8.20
2009,09,25,06,56,8.30
2009,09,25,06,57,8.30
2009,09,25,06,58,8.30
2009,09,25,06,59,8.30
2009,09,25,07,00,8.30
2009,09,25,07,01,8.30
2009,09,25,07,02,8.30
2009,09,25,07,03,8.30
2009,09,25,07,04,8.30
2009,09,25,07,05,8.30
2009,09,25,07,06,8.30
2009,09,25,07,07,8.20
2009,09,25,07,08,8.20
2009,09,25,07,09,8.20
2009,09,25,07,10,8.20
2009,09,25,07,11,8.20
2009,09,25,07,12,8.20
2009,09,25,07,13,8.20
2009,09,25,07,14,8.20
2009,09,25,07,15,8.10
2009,09,25,07,16,8.10
2009,09,25,07,17,8.10
2009,09,25,07,18,8.10
2009,09,25,07,19,8.10
2009,09,25,07,20,8.10
2009,09,25,07,21,8.10
2009,09,25,07,22,8.10
2009,09,25,07,23,8.10
2009,09,25,07,24,8.10
2009,09,25,07,25,8.00
2009,09,25,07,26,8.00
2009,09,25,07,27,8.00
2009,09,25,07,28,8.00
2009,09,25,07,29,8.00
2009,09,25,07,30,8.00
2009,09,25,07,31,8.00
2009,09,25,07,32,8.10
2009,09,25,07,33,8.00
2009,09,25,07,34,8.10
2009,09,25,07,35,8.10
2009,09,25,07,36,8.10
2009,09,25,07,37,8.10
2009,09,25,07,38,8.10
2009,09,25,07,39,8.10
2009,09,25,07,40,8.10
2009,09,25,07,41,8.10
2009,09,25,07,42,8.10
2009,09,25,07,43,8.10
2009,09,25,07,44,8.20
2009,09,25,07,45,8.20
2009,09,25,07,46,8.20
2009,09,25,07,47,8.20
2009,09,25,07,48,8.20
2009,09,25,07,49,8.20
2009,09,25,07,50,8.30
2009,09,25,07,51,8.30
2009,09,25,07,52,8.30
2009,09,25,07,53,8.30
2009,09,25,07,54,8.30
2009,09,25,07,55,8.40
2009,09,25,07,56,8.40
2009,09,25,07,57,8.40
2009,09,25,07,58,8.40
2009,09,25,07,59,8.50
2009,09,25,08,00,8.50
2009,09,25,08,01,8.60
2009,09,25,08,02,8.60
2009,09,25,08,03,8.60
2009,09,25,08,04,8.60
2009,09,25,08,05,8.70
2009,09,25,08,06,8.70
2009,09,25,08,07,8.70
2009,09,25,08,08,8.80
2009,09,25,08,09,8.80
2009,09,25,08,10,8.80
2009,09,25,08,11,8.90
2009,09,25,08,12,8.90
2009,09,25,08,13,9.00
2009,09,25,08,14,9.00
2009,09,25,08,15,9.10
2009,09,25,08,16,9.20
2009,09,25,08,17,9.30
2009,09,25,08,18,9.40
2009,09,25,08,19,9.40
2009,09,25,08,20,9.50
2009,09,25,08,21,9.60
2009,09,25,08,22,9.70
2009,09,25,08,23,9.70
2009,09,25,08,24,9.80
2009,09,25,08,25,9.90
2009,09,25,08,26,10.00
2009,09,25,08,27,10.10
2009,09,25,08,28,10.20
2009,09,25,08,29,10.30
2009,09,25,08,30,10.40
2009,09,25,08,31,10.50
2009,09,25,08,32,10.50
2009,09,25,08,33,10.60
2009,09,25,08,34,10.70
2009,09,25,08,35,10.70
2009,09,25,08,36,10.80
2009,09,25,08,37,10.80
2009,09,25,08,38,10.90
2009,09,25,08,39,11.00
2009,09,25,08,40,11.10
2009,09,25,08,41,11.10
2009,09,25,08,42,11.20
2009,09,25,08,43,11.30
2009,09,25,08,44,11.40
2009,09,25,08,45,11.50
2009,09,25,08,46,11.60
2009,09,25,08,47,11.70
2009,09,25,08,48,11.80
2009,09,25,08,49,11.80
2009,09,25,08,50,11.90
2009,09,25,08,51,12.00
2009,09,25,08,52,12.10
2009,09,25,08,53,12.20
2009,09,25,08,54,12.30
2009,09,25,08,55,12.40
2009,09,25,08,56,12.40
2009,09,25,08,57,12.50
2009,09,25,08,58,12.60
2009,09,25,08,59,12.70
2009,09,25,09,00,12.80
2009,09,25,09,01,12.90
2009,09,25,09,02,13.00
2009,09,25,09,03,13.10
2009,09,25,09,04,13.10
2009,09,25,09,05,13.20
2009,09,25,09,06,13.30
2009,09,25,09,07,13.40
2009,09,25,09,08,13.50
2009,09,25,09,09,13.60
2009,09,25,09,10,13.70
2009,09,25,09,11,13.70
2009,09,25,09,12,13.80
2009,09,25,09,13,13.90
2009,09,25,09,14,14.00
2009,09,25,09,15,14.10
2009,09,25,09,16,14.10
2009,09,25,09,17,14.20
2009,09,25,09,18,14.30
2009,09,25,09,19,14.40
2009,09,25,09,20,14.40
2009,09,25,09,21,14.50
2009,09,25,09,22,14.60
2009,09,25,09,23,14.70
2009,09,25,09,24,14.70
2009,09,25,09,25,14.80
2009,09,25,09,26,14.80
2009,09,25,09,27,14.80
2009,09,25,09,28,14.90
2009,09,25,09,29,14.90
2009,09,25,09,30,15.00
2009,09,25,09,31,15.00
2009,09,25,09,32,15.10
2009,09,25,09,33,15.10
2009,09,25,09,34,15.10
2009,09,25,09,35,15.10
2009,09,25,09,36,15.10
2009,09,25,09,37,15.10
2009,09,25,09,38,15.10
2009,09,25,09,39,15.10
2009,09,25,09,40,15.20
2009,09,25,09,41,15.20
2009,09,25,09,42,15.20
2009,09,25,09,43,15.20
2009,09,25,09,44,15.20
2009,09,25,09,45,15.20
2009,09,25,09,46,15.30
2009,09,25,09,47,15.30
2009,09,25,09,48,15.30
2009,09,25,09,49,15.40
2009,09,25,09,50,15.40
2009,09,25,09,51,15.40
2009,09,25,09,52,15.40
2009,09,25,09,53,15.50
2009,09,25,09,54,15.60
2009,09,25,09,55,15.60
2009,09,25,09,56,15.60
2009,09,25,09,57,15.60
2009,09,25,09,58,15.70
2009,09,25,09,59,15.70
2009,09,25,10,00,15.70
2009,09,25,10,01,15.70
2009,09,25,10,02,15.70
2009,09,25,10,03,15.80
2009,09,25,10,04,15.80
2009,09,25,10,05,15.80
2009,09,25,10,06,15.80
2009,09,25,10,07,15.80
2009,09,25,10,08,15.90
2009,09,25,10,09,15.90
2009,09,25,10,10,15.90
2009,09,25,10,11,16.00
2009,09,25,10,12,16.00
2009,09,25,10,13,16.10
2009,09,25,10,14,16.10
2009,09,25,10,15,16.10
2009,09,25,10,16,16.10
2009,09,25,10,17,16.10
2009,09,25,10,18,16.20
2009,09,25,10,19,16.20
2009,09,25,10,20,16.20
2009,09,25,10,21,16.20
2009,09,25,10,22,16.30
2009,09,25,10,23,16.30
2009,09,25,10,24,16.40
2009,09,25,10,25,16.50
2009,09,25,10,26,16.50
2009,09,25,10,27,16.60
2009,09,25,10,28,16.60
2009,09,25,10,29,16.50
2009,09,25,10,30,16.50
2009,09,25,10,31,16.50
2009,09,25,10,32,16.50
2009,09,25,10,33,16.50
2009,09,25,10,34,16.60
2009,09,25,10,35,16.60
2009,09,25,10,36,16.70
2009,09,25,10,37,16.70
2009,09,25,10,38,16.80
2009,09,25,10,39,16.80
2009,09,25,10,40,16.80
2009,09,25,10,41,16.80
2009,09,25,10,42,16.80
2009,09,25,10,43,16.80
2009,09,25,10,44,16.80
2009,09,25,10,45,16.80
2009,09,25,10,46,16.80
2009,09,25,10,47,16.70
2009,09,25,10,48,16.70
2009,09,25,10,49,16.70
2009,09,25,10,50,16.70
2009,09,25,10,51,16.70
2009,09,25,10,52,16.70
2009,09,25,10,53,16.70
2009,09,25,10,54,16.70
2009,09,25,10,55,16.70
2009,09,25,10,56,16.70
2009,09,25,10,57,16.70
2009,09,25,10,58,16.60
2009,09,25,10,59,16.60
2009,09,25,11,00,16.60
2009,09,25,11,01,16.60
2009,09,25,11,02,16.60
2009,09,25,11,03,16.70
2009,09,25,11,04,16.70
2009,09,25,11,05,16.80
2009,09,25,11,06,16.80
2009,09,25,11,07,16.90
2009,09,25,11,08,16.90
2009,09,25,11,09,17.00
2009,09,25,11,10,17.00
2009,09,25,11,11,17.00
2009,09,25,11,12,17.00
2009,09,25,11,13,16.90
2009,09,25,11,14,16.90
2009,09,25,11,15,16.90
2009,09,25,11,16,16.90
2009,09,25,11,17,16.90
2009,09,25,11,18,16.90
2009,09,25,11,19,16.80
2009,09,25,11,20,16.80
2009,09,25,11,21,16.80
2009,09,25,11,22,16.80
2009,09,25,11,23,16.80
2009,09,25,11,24,16.80
2009,09,25,11,25,16.80
2009,09,25,11,26,16.80
2009,09,25,11,27,16.80
2009,09,25,11,28,16.80
2009,09,25,11,29,16.80
2009,09,25,11,30,16.80
2009,09,25,11,31,16.80
2009,09,25,11,32,16.80
2009,09,25,11,33,16.80
2009,09,25,11,34,16.80
2009,09,25,11,35,16.80
2009,09,25,11,36,16.80
2009,09,25,11,37,16.80
2009,09,25,11,38,16.90
2009,09,25,11,39,16.90
2009,09,25,11,40,17.00
2009,09,25,11,41,17.00
2009,09,25,11,42,17.10
2009,09,25,11,43,17.10
2009,09,25,11,44,17.20
2009,09,25,11,45,17.30
2009,09,25,11,46,17.40
2009,09,25,11,47,17.40
2009,09,25,11,48,17.40
2009,09,25,11,49,17.40
2009,09,25,11,50,17.40
2009,09,25,11,51,17.40
2009,09,25,11,52,17.50
2009,09,25,11,53,17.50
2009,09,25,11,54,17.50
2009,09,25,11,55,17.60
2009,09,25,11,56,17.60
2009,09,25,11,57,17.60
2009,09,25,11,58,17.70
2009,09,25,11,59,17.70
2009,09,25,12,00,17.70
2009,09,25,12,01,17.70
2009,09,25,12,02,17.60
2009,09,25,12,03,17.60
2009,09,25,12,04,17.60
2009,09,25,12,05,17.50
2009,09,25,12,06,17.50
2009,09,25,12,07,17.50
2009,09,25,12,08,17.60
2009,09,25,12,09,17.60
2009,09,25,12,10,17.60
2009,09,25,12,11,17.60
2009,09,25,12,12,17.60
2009,09,25,12,13,17.60
2009,09,25,12,14,17.50
2009,09,25,12,15,17.50
2009,09,25,12,16,17.50
2009,09,25,12,17,17.50
2009,09,25,12,18,17.50
2009,09,25,12,19,17.50
2009,09,25,12,20,17.60
2009,09,25,12,21,17.60
2009,09,25,12,22,17.60
2009,09,25,12,23,17.60
2009,09,25,12,24,17.60
2009,09,25,12,25,17.60
2009,09,25,12,26,17.50
2009,09,25,12,27,17.50
2009,09,25,12,28,17.60
2009,09,25,12,29,17.60
2009,09,25,12,30,17.70
2009,09,25,12,31,17.80
2009,09,25,12,32,17.80
2009,09,25,12,33,17.80
2009,09,25,12,34,17.80
2009,09,25,12,35,17.90
2009,09,25,12,36,17.90
2009,09,25,12,37,17.90
2009,09,25,12,38,17.90
2009,09,25,12,39,17.90
2009,09,25,12,40,18.00
2009,09,25,12,41,18.00
2009,09,25,12,42,18.10
2009,09,25,12,43,18.10
2009,09,25,12,44,18.10
2009,09,25,12,45,18.10
2009,09,25,12,46,18.10
2009,09,25,12,47,18.10
2009,09,25,12,48,18.10
2009,09,25,12,49,18.10
2009,09,25,12,50,18.10
2009,09,25,12,51,18.10
2009,09,25,12,52,18.10
2009,09,25,12,53,18.10
2009,09,25,12,54,18.10
2009,09,25,12,55,18.10
2009,09,25,12,56,18.20
2009,09,25,12,57,18.20
2009,09,25,12,58,18.30
2009,09,25,12,59,18.30
2009,09,25,13,00,18.40
2009,09,25,13,01,18.40
2009,09,25,13,02,18.40
2009,09,25,13,03,18.50
2009,09,25,13,04,18.50
2009,09,25,13,05,18.50
2009,09,25,13,06,18.60
2009,09,25,13,07,18.60
2009,09,25,13,08,18.60
2009,09,25,13,09,18.60
2009,09,25,13,10,18.70
2009,09,25,13,11,18.70
2009,09,25,13,12,18.70
2009,09,25,13,13,18.80
2009,09,25,13,14,18.80
2009,09,25,13,15,18.80
2009,09,25,13,16,18.80
2009,09,25,13,17,18.80
2009,09,25,13,18,18.80
2009,09,25,13,19,18.80
2009,09,25,13,20,18.80
2009,09,25,13,21,18.90
2009,09,25,13,22,18.90
2009,09,25,13,23,18.90
2009,09,25,13,24,18.90
2009,09,25,13,25,18.90
2009,09,25,13,26,18.90
2009,09,25,13,27,18.90
2009,09,25,13,28,18.90
2009,09,25,13,29,19.00
2009,09,25,13,30,19.10
2009,09,25,13,31,19.10
2009,09,25,13,32,19.10
2009,09,25,13,33,19.20
2009,09,25,13,34,19.20
2009,09,25,13,35,19.20
2009,09,25,13,36,19.30
2009,09,25,13,37,19.20
2009,09,25,13,38,19.20
2009,09,25,13,39,19.20
2009,09,25,13,40,19.20
2009,09,25,13,41,19.20
2009,09,25,13,42,19.20
2009,09,25,13,43,19.20
2009,09,25,13,44,19.20
2009,09,25,13,45,19.20
2009,09,25,13,46,19.30
2009,09,25,13,47,19.30
2009,09,25,13,48,19.40
2009,09,25,13,49,19.50
2009,09,25,13,50,19.50
2009,09,25,13,51,19.40
2009,09,25,13,52,19.40
2009,09,25,13,53,19.30
2009,09,25,13,54,19.30
2009,09,25,13,55,19.30
2009,09,25,13,56,19.30
2009,09,25,13,57,19.30
2009,09,25,13,58,19.20
2009,09,25,13,59,19.20
2009,09,25,14,00,19.20
2009,09,25,14,01,19.10
2009,09,25,14,02,19.10
2009,09,25,14,03,19.00
2009,09,25,14,04,19.00
2009,09,25,14,05,19.00
2009,09,25,14,06,19.00
2009,09,25,14,07,19.10
2009,09,25,14,08,19.10
2009,09,25,14,09,19.10
2009,09,25,14,10,19.10
2009,09,25,14,11,19.10
2009,09,25,14,12,19.20
2009,09,25,14,13,19.20
2009,09,25,14,14,19.30
2009,09,25,14,15,19.40
2009,09,25,14,16,19.40
2009,09,25,14,17,19.40
2009,09,25,14,18,19.50
2009,09,25,14,19,19.60
2009,09,25,14,20,19.60
2009,09,25,14,21,19.60
2009,09,25,14,22,19.60
2009,09,25,14,23,19.60
2009,09,25,14,24,19.70
2009,09,25,14,25,19.70
2009,09,25,14,26,19.70
2009,09,25,14,27,19.70
2009,09,25,14,28,19.80
2009,09,25,14,29,19.80
2009,09,25,14,30,19.80
2009,09,25,14,31,19.80
2009,09,25,14,32,19.80
2009,09,25,14,33,19.80
2009,09,25,14,34,19.80
2009,09,25,14,35,19.60
2009,09,25,14,36,19.50
2009,09,25,14,37,19.40
2009,09,25,14,38,19.30
2009,09,25,14,39,19.10
2009,09,25,14,40,19.00
2009,09,25,14,41,18.90
2009,09,25,14,42,18.80
2009,09,25,14,43,18.70
2009,09,25,14,44,18.60
2009,09,25,14,45,18.60
2009,09,25,14,46,18.60
2009,09,25,14,47,18.60
2009,09,25,14,48,18.60
2009,09,25,14,49,18.60
2009,09,25,14,50,18.50
2009,09,25,14,51,18.50
2009,09,25,14,52,18.40
2009,09,25,14,53,18.50
2009,09,25,14,54,18.60
2009,09,25,14,55,18.60
2009,09,25,14,56,18.70
2009,09,25,14,57,18.80
2009,09,25,14,58,18.90
2009,09,25,14,59,19.00
2009,09,25,15,00,19.10
2009,09,25,15,01,19.10
2009,09,25,15,02,19.10
2009,09,25,15,03,19.00
2009,09,25,15,04,18.90
2009,09,25,15,05,18.80
2009,09,25,15,06,18.70
2009,09,25,15,07,18.60
2009,09,25,15,08,18.50
2009,09,25,15,09,18.40
2009,09,25,15,10,18.30
2009,09,25,15,11,18.20
2009,09,25,15,12,18.20
2009,09,25,15,13,18.10
2009,09,25,15,14,18.10
2009,09,25,15,15,18.10
2009,09,25,15,16,18.10
2009,09,25,15,17,18.10
2009,09,25,15,18,18.20
2009,09,25,15,19,18.20
2009,09,25,15,20,18.30
2009,09,25,15,21,18.30
2009,09,25,15,22,18.40
2009,09,25,15,23,18.40
2009,09,25,15,24,18.30
2009,09,25,15,25,18.40
2009,09,25,15,26,18.40
2009,09,25,15,27,18.40
2009,09,25,15,28,18.40
2009,09,25,15,29,18.50
2009,09,25,15,30,18.50
2009,09,25,15,31,18.60
2009,09,25,15,32,18.70
2009,09,25,15,33,18.70
2009,09,25,15,34,18.70
2009,09,25,15,35,18.70
2009,09,25,15,36,18.70
2009,09,25,15,37,18.70
2009,09,25,15,38,18.80
2009,09,25,15,39,18.80
2009,09,25,15,40,18.80
2009,09,25,15,41,18.80
2009,09,25,15,42,18.90
2009,09,25,15,43,18.80
2009,09,25,15,44,18.80
2009,09,25,15,45,18.70
2009,09,25,15,46,18.70
2009,09,25,15,47,18.60
2009,09,25,15,48,18.60
2009,09,25,15,49,18.60
2009,09,25,15,50,18.60
2009,09,25,15,51,18.60
2009,09,25,15,52,18.60
2009,09,25,15,53,18.60
2009,09,25,15,54,18.60
2009,09,25,15,55,18.50
2009,09,25,15,56,18.50
2009,09,25,15,57,18.50
2009,09,25,15,58,18.40
2009,09,25,15,59,18.30
2009,09,25,16,00,18.30
2009,09,25,16,01,18.30
2009,09,25,16,02,18.20
2009,09,25,16,03,18.20
2009,09,25,16,04,18.20
2009,09,25,16,05,18.10
2009,09,25,16,06,18.10
2009,09,25,16,07,18.10
2009,09,25,16,08,18.10
2009,09,25,16,09,18.10
2009,09,25,16,10,18.20
2009,09,25,16,11,18.20
2009,09,25,16,12,18.20
2009,09,25,16,13,18.20
2009,09,25,16,14,18.20
2009,09,25,16,15,18.20
2009,09,25,16,16,18.20
2009,09,25,16,17,18.20
2009,09,25,16,18,18.20
2009,09,25,16,19,18.20
2009,09,25,16,20,18.30
2009,09,25,16,21,18.30
2009,09,25,16,22,18.30
2009,09,25,16,23,18.30
2009,09,25,16,24,18.30
2009,09,25,16,25,18.30
2009,09,25,16,26,18.40
2009,09,25,16,27,18.40
2009,09,25,16,28,18.50
2009,09,25,16,29,18.60
2009,09,25,16,30,18.60
2009,09,25,16,31,18.60
2009,09,25,16,32,18.60
2009,09,25,16,33,18.60
2009,09,25,16,34,18.60
2009,09,25,16,35,18.60
2009,09,25,16,36,18.60
2009,09,25,16,37,18.60
2009,09,25,16,38,18.70
2009,09,25,16,39,18.70
2009,09,25,16,40,18.70
2009,09,25,16,41,18.60
2009,09,25,16,42,18.60
2009,09,25,16,43,18.60
2009,09,25,16,44,18.60
2009,09,25,16,45,18.60
2009,09,25,16,46,18.50
2009,09,25,16,47,18.50
2009,09,25,16,48,18.40
2009,09,25,16,49,18.30
2009,09,25,16,50,18.30
2009,09,25,16,51,18.20
2009,09,25,16,52,18.20
2009,09,25,16,53,18.20
2009,09,25,16,54,18.20
2009,09,25,16,55,18.20
2009,09,25,16,56,18.30
2009,09,25,16,57,18.30
2009,09,25,16,58,18.30
2009,09,25,16,59,18.30
2009,09,25,17,00,18.20
2009,09,25,17,01,18.20
2009,09,25,17,02,18.20
2009,09,25,17,03,18.20
2009,09,25,17,04,18.20
2009,09,25,17,05,18.20
2009,09,25,17,06,18.20
2009,09,25,17,07,18.20
2009,09,25,17,08,18.20
2009,09,25,17,09,18.20
2009,09,25,17,10,18.20
2009,09,25,17,11,18.20
2009,09,25,17,12,18.30
2009,09,25,17,13,18.30
2009,09,25,17,14,18.30
2009,09,25,17,15,18.40
2009,09,25,17,16,18.40
2009,09,25,17,17,18.40
2009,09,25,17,18,18.40
2009,09,25,17,19,18.40
2009,09,25,17,20,18.40
2009,09,25,17,21,18.30
2009,09,25,17,22,18.30
2009,09,25,17,23,18.30
2009,09,25,17,24,18.30
2009,09,25,17,25,18.30
2009,09,25,17,26,18.20
2009,09,25,17,27,18.20
2009,09,25,17,28,18.20
2009,09,25,17,29,18.20
2009,09,25,17,30,18.20
2009,09,25,17,31,18.10
2009,09,25,17,32,18.10
2009,09,25,17,33,18.00
2009,09,25,17,34,17.90
2009,09,25,17,35,17.80
2009,09,25,17,36,17.70
2009,09,25,17,37,17.60
2009,09,25,17,38,17.60
2009,09,25,17,39,17.50
2009,09,25,17,40,17.50
2009,09,25,17,41,17.40